TimeHST,TemperatureF,Dew PointF,Humidity,Sea Level PressureIn,VisibilityMPH,Wind Direction,Wind SpeedMPH,Gust SpeedMPH,PrecipitationIn,Events,Conditions,WindDirDegrees,DateUTC
12:56 AM,72.0,66.9,84,29.89,10.0,ENE,13.8,19.6,N/A,,Partly Cloudy,70,2013-09-14 10:56:00
1:56 AM,72.0,66.9,84,29.88,10.0,East,12.7,-,N/A,,Clear,80,2013-09-14 11:56:00
2:56 AM,72.0,65.8,81,29.87,10.0,ENE,9.2,-,N/A,,Clear,70,2013-09-14 12:56:00
3:56 AM,70.9,65.8,84,29.86,10.0,East,8.1,-,N/A,,Clear,100,2013-09-14 13:56:00
4:56 AM,70.9,65.8,84,29.87,10.0,ENE,10.4,-,N/A,,Clear,70,2013-09-14 14:56:00
5:56 AM,68.9,65.8,90,29.89,-9999.0,SSE,4.6,-,N/A,,Clear,150,2013-09-14 15:56:00
6:56 AM,70.0,65.8,87,29.90,10.0,ENE,4.6,-,N/A,,Clear,60,2013-09-14 16:56:00
7:56 AM,77.0,68.0,74,29.91,10.0,Variable,3.5,-,N/A,,Partly Cloudy,0,2013-09-14 17:56:00
8:22 AM,78.8,66.2,65,29.98,10.0,SSW,6.9,-,N/A,,Mostly Cloudy,200,2013-09-14 18:22:00
8:38 AM,78.8,66.2,65,29.99,10.0,Calm,Calm,-,N/A,,Scattered Clouds,0,2013-09-14 18:38:00
8:56 AM,81.0,68.9,67,29.92,10.0,WNW,6.9,-,N/A,,Partly Cloudy,300,2013-09-14 18:56:00
9:56 AM,79.9,68.0,67,29.93,10.0,Variable,6.9,-,N/A,,Scattered Clouds,0,2013-09-14 19:56:00
10:48 AM,80.6,66.2,61,29.99,10.0,West,6.9,-,N/A,,Mostly Cloudy,270,2013-09-14 20:48:00
10:56 AM,80.6,66.2,61,29.99,10.0,NW,5.8,-,N/A,,Overcast,320,2013-09-14 20:56:00
11:56 AM,81.9,68.0,63,29.91,10.0,Variable,5.8,-,N/A,,Mostly Cloudy,0,2013-09-14 21:56:00
12:03 PM,84.2,66.2,55,29.97,10.0,NNE,6.9,-,N/A,,Mostly Cloudy,30,2013-09-14 22:03:00
12:56 PM,82.9,66.9,58,29.88,10.0,Variable,5.8,-,N/A,,Mostly Cloudy,0,2013-09-14 22:56:00
1:17 PM,82.4,66.2,58,29.95,10.0,Variable,5.8,-,N/A,,Mostly Cloudy,0,2013-09-14 23:17:00
1:56 PM,82.4,66.2,58,29.94,10.0,NNE,13.8,20.7,N/A,,Mostly Cloudy,30,2013-09-14 23:56:00
2:46 PM,82.4,66.2,58,29.93,10.0,WSW,6.9,18.4,N/A,,Mostly Cloudy,250,2013-09-15 00:46:00
2:56 PM,79.9,66.9,64,29.86,10.0,West,6.9,-,N/A,,Overcast,260,2013-09-15 00:56:00
3:06 PM,82.4,68.0,62,29.93,10.0,West,6.9,-,N/A,,Overcast,260,2013-09-15 01:06:00
3:27 PM,80.6,68.0,65,29.93,10.0,Calm,Calm,-,0.00,,Overcast,0,2013-09-15 01:27:00
3:56 PM,79.9,68.0,67,29.87,10.0,WNW,8.1,-,0.00,,Overcast,300,2013-09-15 01:56:00
4:56 PM,80.6,68.0,65,29.95,10.0,NE,15.0,-,N/A,,Scattered Clouds,40,2013-09-15 02:56:00
5:56 PM,77.9,68.0,71,29.90,10.0,NE,16.1,-,N/A,,Clear,50,2013-09-15 03:56:00
6:56 PM,75.9,68.0,76,29.91,10.0,NE,15.0,-,N/A,,Mostly Cloudy,40,2013-09-15 04:56:00
7:56 PM,74.8,68.0,79,29.92,10.0,ENE,12.7,-,N/A,,Partly Cloudy,60,2013-09-15 05:56:00
8:56 PM,73.9,66.9,79,29.94,10.0,East,6.9,-,N/A,,Clear,80,2013-09-15 06:56:00
9:56 PM,72.9,66.9,82,29.95,-9999.0,ESE,5.8,-,N/A,,Clear,120,2013-09-15 07:56:00
10:56 PM,70.9,68.9,93,29.95,-9999.0,SE,6.9,-,N/A,,Mostly Cloudy,130,2013-09-15 08:56:00
11:12 PM,71.6,69.8,94,30.01,-9999.0,ESE,6.9,-,N/A,,Clear,120,2013-09-15 09:12:00
11:56 PM,72.0,70.9,96,29.93,-9999.0,SE,6.9,-,N/A,,Clear,140,2013-09-15 09:56:00